Location: Rounton
(54.4000°N, 1.3500°W)
Time: 03:57:27
(UTC+00:00)

A-11 Canister half - Pass Details

Date: 29 November 2021
Orbit: 1524 x 1684 km, 47.3° (Epoch: 17 January)

Event Time Altitude Azimuth Distance (km) Brightness Sun altitude
Exits shadow 05:03:58 29° 235° (SW) 2,712 9.8 -24.5°
Maximum altitude 05:09:23 57° 172° (S) 1,896 9.4 -23.7°
Drops below altitude 10° 05:18:51 10° 97° (E) 3,832 12.2 -22.3°
Sets 05:21:58 0° 94° (E) 4,796 13.1 -21.9°
